Weather History for KSTE - October, 2013

Change the Weather History Date:

Sunday, October 6, 2013

  Actual Average Record
Temperature  
Mean Temperature 48 °F -  
Max Temperature 55 °F 62 °F 86 °F (2007)
Min Temperature 41 °F 41 °F 27 °F (1952)
Degree Days  
Heating Degree Days 17    
Moisture  
Dew Point 41 °F    
Average Humidity 73    
Maximum Humidity 99    
Minimum Humidity 47    
Precipitation  
Precipitation 0.01 in - - ()
Sea Level Pressure  
Sea Level Pressure 29.71 in    
Wind  
Wind Speed 5 mph (WSW)    
Max Wind Speed 10 mph    
Max Gust Speed -    
Visibility 10 miles    
Events      
Averages and records for this station are not official NWS values.
T = Trace of Precipitation, MM = Missing Value Source: NWS Daily Summary

Daily Weather History Graph

Daily Weather History Graph

Search for Another Location

Airport or City:

Trip Planner

Search our weather history database for the weather conditions in past years. The results will help you decide how hot, cold, wet, or windy it might be!

Date:

Astronomy

Oct. 06, 2013 Rise Set
Actual Time 7:02 AM CDT 6:29 PM CDT
Civil Twilight 6:33 AM CDT 6:58 PM CDT
Nautical Twilight 5:59 AM CDT 7:31 PM CDT
Astronomical Twilight 5:25 AM CDT 8:05 PM CDT
Moon 8:52 AM CDT (10/6) 7:22 PM CDT (10/6)
Length of Visible Light 12h 24m
Length of Day
11h 26m
Waxing Crescent, 3% of the Moon is Illuminated
Oct 6
Waxing Crescent
Oct 11
First Quarter
Oct 18
Full
Oct 26
Last Quarter
Nov 3
New

Hourly Weather History & Observations

Time (CDT) Temp. Windchill Dew Point Humidity Pressure Visibility Wind Dir Wind Speed Gust Speed Precip Events Conditions
12:15 AM 55.4 °F - 54.1 °F 96% 29.73 in 10.0 mi West 4.6 mph - N/A   Overcast
12:35 AM 55.0 °F - 53.8 °F 96% 29.72 in 10.0 mi West 5.8 mph - N/A   Overcast
12:55 AM 54.9 °F - 53.6 °F 96% 29.74 in 10.0 mi West 4.6 mph - N/A   Overcast
1:15 AM 54.9 °F - 53.8 °F 96% 29.74 in 10.0 mi West 8.1 mph - N/A   Overcast
1:35 AM 53.8 °F - 52.2 °F 94% 29.73 in 10.0 mi West 6.9 mph - N/A   Overcast
1:55 AM 53.2 °F - 51.4 °F 94% 29.73 in 10.0 mi West 6.9 mph - N/A   Overcast
2:15 AM 52.0 °F - 50.0 °F 93% 29.73 in 10.0 mi West 3.5 mph - N/A   Scattered Clouds
2:35 AM 51.3 °F - 50.0 °F 95% 29.72 in 10.0 mi Calm Calm - N/A   Clear
2:55 AM 50.5 °F - 49.8 °F 97% 29.71 in 10.0 mi Calm Calm - N/A   Mostly Cloudy
3:15 AM 50.2 °F - 49.8 °F 99% 29.71 in 10.0 mi SW 5.8 mph - N/A   Overcast
3:35 AM 49.1 °F - 47.5 °F 94% 29.71 in 10.0 mi WSW 4.6 mph - N/A   Scattered Clouds
3:55 AM 48.2 °F - 46.2 °F 93% 29.71 in 10.0 mi WSW 4.6 mph - N/A   Clear
4:15 AM 46.9 °F - 45.5 °F 95% 29.72 in 10.0 mi WSW 4.6 mph - N/A   Clear
4:35 AM 46.8 °F - 45.3 °F 95% 29.71 in 10.0 mi WSW 6.9 mph - N/A   Clear
4:55 AM 46.0 °F 43.1 °F 44.6 °F 95% 29.70 in 10.0 mi WSW 5.8 mph - N/A   Clear
5:15 AM 45.1 °F 43.7 °F 44.1 °F 96% 29.71 in 10.0 mi SW 3.5 mph - N/A   Clear
5:35 AM 44.6 °F 42.2 °F 43.7 °F 97% 29.71 in 10.0 mi WSW 4.6 mph - N/A   Clear
5:55 AM 44.1 °F 41.5 °F 43.3 °F 97% 29.71 in 10.0 mi SW 4.6 mph - N/A   Clear
6:15 AM 43.2 °F 41.5 °F 42.6 °F 98% 29.71 in 10.0 mi SW 3.5 mph - N/A   Clear
6:35 AM 41.9 °F - 41.2 °F 97% 29.72 in 10.0 mi Calm Calm - N/A   Clear
6:55 AM 41.0 °F - 40.6 °F 99% 29.72 in 7.0 mi Calm Calm - 0.01 in   Clear
7:15 AM 41.7 °F 39.8 °F 41.5 °F 99% 29.73 in 10.0 mi WSW 3.5 mph - N/A   Clear
7:35 AM 42.1 °F 40.2 °F 41.4 °F 97% 29.73 in 10.0 mi West 3.5 mph - N/A   Clear
7:55 AM 42.8 °F - 41.2 °F 94% 29.73 in 10.0 mi Calm Calm - N/A   Clear
8:15 AM 43.9 °F 41.3 °F 40.3 °F 87% 29.73 in 10.0 mi WSW 4.6 mph - N/A   Clear
8:35 AM 44.6 °F 42.2 °F 40.3 °F 85% 29.72 in 10.0 mi WSW 4.6 mph - N/A   Clear
8:55 AM 45.5 °F 43.2 °F 40.1 °F 81% 29.72 in 10.0 mi West 4.6 mph - N/A   Clear
9:15 AM 46.8 °F - 40.5 °F 79% 29.72 in 10.0 mi West 5.8 mph - N/A   Clear
9:35 AM 47.3 °F - 38.3 °F 71% 29.72 in 10.0 mi West 8.1 mph - N/A   Clear
9:55 AM 48.9 °F - 39.6 °F 70% 29.72 in 10.0 mi West 6.9 mph - N/A   Clear
10:15 AM 49.6 °F - 38.1 °F 65% 29.71 in 10.0 mi West 5.8 mph - N/A   Clear
10:35 AM 50.5 °F - 36.5 °F 59% 29.72 in 10.0 mi West 6.9 mph - N/A   Clear
10:55 AM 51.4 °F - 35.8 °F 55% 29.72 in 10.0 mi WNW 8.1 mph - N/A   Clear
11:15 AM 52.2 °F - 35.8 °F 54% 29.72 in 10.0 mi West 6.9 mph - N/A   Clear
11:35 AM 52.9 °F - 36.1 °F 53% 29.72 in 10.0 mi WSW 8.1 mph - N/A   Clear
11:55 AM 53.1 °F - 35.1 °F 50% 29.71 in 10.0 mi West 6.9 mph - N/A   Clear
12:15 PM 53.1 °F - 34.9 °F 50% 29.72 in 10.0 mi West 8.1 mph - N/A   Clear
12:35 PM 54.1 °F - 34.9 °F 48% 29.71 in 10.0 mi West 10.4 mph - N/A   Mostly Cloudy
12:55 PM 54.5 °F - 35.2 °F 48% 29.70 in 10.0 mi West 6.9 mph - N/A   Mostly Cloudy
1:15 PM 54.9 °F - 35.4 °F 48% 29.70 in 10.0 mi SW 6.9 mph - N/A   Overcast
1:35 PM 53.2 °F - 34.5 °F 49% 29.69 in 10.0 mi Calm Calm - N/A   Overcast
1:55 PM 55.2 °F - 35.1 °F 47% 29.69 in 10.0 mi West 8.1 mph - N/A   Scattered Clouds
2:15 PM 55.2 °F - 35.1 °F 47% 29.69 in 10.0 mi WSW 9.2 mph - N/A   Clear
2:35 PM 54.9 °F - 35.6 °F 48% 29.68 in 10.0 mi SSW 5.8 mph - N/A   Clear
2:55 PM 54.5 °F - 35.6 °F 49% 29.68 in 10.0 mi West 6.9 mph - N/A   Scattered Clouds
3:15 PM 54.9 °F - 35.8 °F 49% 29.68 in 10.0 mi WNW 3.5 mph - N/A   Scattered Clouds
3:35 PM 54.0 °F - 35.6 °F 50% 29.68 in 10.0 mi WSW 8.1 mph - N/A   Scattered Clouds
3:55 PM 53.4 °F - 34.9 °F 49% 29.68 in 10.0 mi WSW 6.9 mph - N/A   Mostly Cloudy
4:15 PM 52.9 °F - 35.6 °F 52% 29.67 in 10.0 mi West 5.8 mph - N/A   Scattered Clouds
4:35 PM 52.7 °F - 35.6 °F 52% 29.67 in 10.0 mi West 5.8 mph - N/A   Clear
4:55 PM 52.3 °F - 36.3 °F 54% 29.68 in 10.0 mi West 5.8 mph - N/A   Clear
5:15 PM 53.6 °F - 36.5 °F 52% 29.68 in 10.0 mi West 6.9 mph - N/A   Scattered Clouds
5:35 PM 53.6 °F - 36.0 °F 51% 29.68 in 10.0 mi West 5.8 mph - N/A   Scattered Clouds
5:55 PM 52.5 °F - 35.8 °F 53% 29.69 in 10.0 mi WSW 5.8 mph - N/A   Clear
6:15 PM 51.1 °F - 36.3 °F 57% 29.69 in 10.0 mi WSW 3.5 mph - N/A   Clear
6:35 PM 49.5 °F - 37.4 °F 63% 29.70 in 10.0 mi West 4.6 mph - N/A   Clear
6:55 PM 48.7 °F - 37.9 °F 66% 29.70 in 10.0 mi West 3.5 mph - N/A   Clear
7:15 PM 48.2 °F - 38.3 °F 69% 29.71 in 10.0 mi WSW 3.5 mph - N/A   Clear
7:35 PM 47.7 °F - 38.3 °F 70% 29.71 in 10.0 mi West 3.5 mph - N/A   Clear
7:55 PM 45.1 °F 42.0 °F 38.3 °F 77% 29.71 in 10.0 mi SW 5.8 mph - N/A   Clear
8:15 PM 46.8 °F - 37.9 °F 71% 29.71 in 10.0 mi WSW 3.5 mph - N/A   Mostly Cloudy
8:35 PM 47.5 °F - 37.4 °F 68% 29.71 in 10.0 mi West 5.8 mph - N/A   Mostly Cloudy
8:55 PM 47.8 °F - 38.1 °F 69% 29.71 in 10.0 mi West 4.6 mph - N/A   Mostly Cloudy
9:15 PM 48.4 °F - 38.3 °F 68% 29.72 in 10.0 mi West 6.9 mph - N/A   Overcast
9:35 PM 48.4 °F - 38.3 °F 68% 29.71 in 10.0 mi West 6.9 mph - N/A   Overcast
9:55 PM 48.2 °F - 38.1 °F 68% 29.71 in 10.0 mi West 5.8 mph - N/A   Mostly Cloudy
10:15 PM 47.8 °F - 38.8 °F 71% 29.71 in 10.0 mi West 6.9 mph - N/A   Overcast
10:35 PM 47.8 °F - 39.6 °F 73% 29.71 in 10.0 mi West 4.6 mph - N/A   Overcast
10:55 PM 47.7 °F - 40.1 °F 75% 29.71 in 10.0 mi West 5.8 mph - N/A   Overcast
11:15 PM 47.5 °F - 40.1 °F 76% 29.71 in 10.0 mi West 5.8 mph - N/A   Overcast
11:35 PM 47.5 °F - 40.6 °F 77% 29.70 in 10.0 mi West 6.9 mph - N/A   Overcast
11:55 PM 47.3 °F - 40.8 °F 78% 29.70 in 10.0 mi West 8.1 mph - N/A   Overcast